sat.trackr.live / text

‹ back to catalog

STARLINK-5447

NORAD 54779 · 2022-175X

PAYLOAD ACTIVE UNKNOWN

§ Identity

Operator
Country
US
Launch date
2022-12-17
Launch site
AFETR
Launch vehicle
Mass (kg)
RCS (m²)

Purposes: comms

External: N2YO · Heavens-Above · Gunter

§ Orbital elements

Epoch: 2026-05-25T04:01:29.425152Z

Period
95.44 min
Inclination
53.2126°
Eccentricity
0.0001591
Mean motion
15.08845712 rev/d
Perigee alt
538.6 km
Apogee alt
540.8 km
Semi-major
6,917.9 km
B*
-7.4626e-5
RAAN
45.9003°
Arg perigee
88.4380°
Mean anomaly
271.6795°
Rev number
19,167

§ Raw data

STARLINK-54471 54779U 22175X   26145.16770168 -.00001476  00000+0 -74626-4 0  99912 54779  53.2126  45.9003 0001591  88.4380 271.6795 15.08845712191673

JSON: /api/v1/satellites/54779 · /tle

For live sub-satellite position, see the globe view (requires WebGL).

§ Visibility from observer

Set your observer location to see the next 7 days of passes ≥ 10°. The values pass through the URL so the page stays shareable.

No JS? Fill the form by hand. The geolocation button needs JavaScript.